TimeMST,TemperatureF,Dew PointF,Humidity,Sea Level PressureIn,VisibilityMPH,Wind Direction,Wind SpeedMPH,Gust SpeedMPH,PrecipitationIn,Events,Conditions,WindDirDegrees,DateUTC
12:15 AM,33.8,19.4,56,29.81,10.0,SSE,4.6,-,N/A,,Clear,160,2013-02-09 07:15:00
12:35 AM,30.2,19.4,64,29.80,10.0,Calm,Calm,-,N/A,,Clear,0,2013-02-09 07:35:00
12:55 AM,32.0,19.4,60,29.80,10.0,Calm,Calm,-,N/A,,Clear,0,2013-02-09 07:55:00
1:15 AM,32.0,21.2,64,29.80,10.0,Calm,Calm,-,N/A,,Clear,0,2013-02-09 08:15:00
1:35 AM,32.0,21.2,64,29.79,10.0,WSW,5.8,-,N/A,,Clear,240,2013-02-09 08:35:00
1:55 AM,30.2,21.2,69,29.78,10.0,SW,6.9,-,N/A,,Clear,230,2013-02-09 08:55:00
2:15 AM,28.4,19.4,69,29.77,10.0,South,4.6,-,N/A,,Clear,170,2013-02-09 09:15:00
2:35 AM,26.6,19.4,74,29.76,10.0,SE,3.5,-,N/A,,Clear,130,2013-02-09 09:35:00
2:55 AM,28.4,21.2,74,29.76,10.0,SE,4.6,-,N/A,,Clear,130,2013-02-09 09:55:00
3:15 AM,26.6,21.2,80,29.75,10.0,Calm,Calm,-,N/A,,Clear,0,2013-02-09 10:15:00
3:35 AM,28.4,19.4,69,29.73,10.0,Calm,Calm,-,N/A,,Clear,0,2013-02-09 10:35:00
3:55 AM,30.2,21.2,69,29.73,10.0,Calm,Calm,-,N/A,,Clear,0,2013-02-09 10:55:00
4:15 AM,26.6,21.2,80,29.72,10.0,Calm,Calm,-,N/A,,Clear,0,2013-02-09 11:15:00
4:35 AM,26.6,19.4,74,29.72,10.0,Calm,Calm,-,N/A,,Clear,0,2013-02-09 11:35:00
4:55 AM,30.2,21.2,69,29.72,10.0,Calm,Calm,-,N/A,,Clear,0,2013-02-09 11:55:00
5:15 AM,28.4,21.2,74,29.72,10.0,Calm,Calm,-,N/A,,Clear,0,2013-02-09 12:15:00
5:35 AM,26.6,19.4,74,29.71,10.0,Calm,Calm,-,N/A,,Clear,0,2013-02-09 12:35:00
5:55 AM,28.4,19.4,69,29.70,10.0,Calm,Calm,-,N/A,,Clear,0,2013-02-09 12:55:00
6:15 AM,26.6,17.6,69,29.70,10.0,Calm,Calm,-,N/A,,Clear,0,2013-02-09 13:15:00
6:35 AM,28.4,19.4,69,29.69,10.0,Calm,Calm,-,N/A,,Clear,0,2013-02-09 13:35:00
6:55 AM,30.2,19.4,64,29.69,10.0,WSW,4.6,-,N/A,,Clear,240,2013-02-09 13:55:00
7:15 AM,28.4,19.4,69,29.69,10.0,WSW,4.6,-,N/A,,Clear,240,2013-02-09 14:15:00
7:35 AM,30.2,19.4,64,29.68,10.0,WSW,3.5,-,N/A,,Clear,240,2013-02-09 14:35:00
7:55 AM,32.0,21.2,64,29.68,10.0,SW,3.5,-,N/A,,Clear,230,2013-02-09 14:55:00
8:15 AM,33.8,21.2,60,29.67,10.0,West,3.5,-,N/A,,Clear,260,2013-02-09 15:15:00
8:35 AM,35.6,21.2,56,29.66,10.0,Calm,Calm,-,N/A,,Clear,0,2013-02-09 15:35:00
8:55 AM,35.6,19.4,52,29.64,10.0,South,6.9,-,N/A,,Clear,190,2013-02-09 15:55:00
9:15 AM,37.4,19.4,48,29.64,10.0,SW,9.2,-,N/A,,Clear,230,2013-02-09 16:15:00
9:35 AM,37.4,17.6,45,29.63,10.0,SW,10.4,-,N/A,,Clear,230,2013-02-09 16:35:00
9:55 AM,39.2,17.6,42,29.62,10.0,WSW,15.0,18.4,N/A,,Clear,240,2013-02-09 16:55:00
10:15 AM,41.0,17.6,39,29.62,10.0,SW,20.7,27.6,N/A,,Clear,230,2013-02-09 17:15:00
10:35 AM,37.4,14.0,38,29.61,10.0,SW,24.2,-,N/A,,Scattered Clouds,230,2013-02-09 17:35:00
10:55 AM,39.2,14.0,36,29.60,10.0,SW,23.0,34.5,N/A,,Partly Cloudy,230,2013-02-09 17:55:00
11:15 AM,39.2,12.2,33,29.59,10.0,WSW,27.6,33.4,N/A,,Scattered Clouds,240,2013-02-09 18:15:00
11:35 AM,42.8,15.8,34,29.58,10.0,SW,27.6,36.8,N/A,,Mostly Cloudy,220,2013-02-09 18:35:00
11:55 AM,39.2,12.2,33,29.56,10.0,SW,34.5,38.0,N/A,,Mostly Cloudy,230,2013-02-09 18:55:00
12:15 PM,39.2,17.6,42,29.58,10.0,WSW,20.7,34.5,N/A,,Overcast,250,2013-02-09 19:15:00
12:35 PM,35.6,17.6,48,29.58,10.0,WSW,19.6,40.3,N/A,,Overcast,250,2013-02-09 19:35:00
12:55 PM,33.8,19.4,56,29.59,10.0,West,19.6,28.8,N/A,,Overcast,260,2013-02-09 19:55:00
1:15 PM,33.8,23.0,65,29.60,8.0,West,19.6,32.2,N/A,,Mostly Cloudy,260,2013-02-09 20:15:00
1:35 PM,26.6,21.2,80,29.63,0.2,WNW,16.1,26.5,N/A,,Overcast,290,2013-02-09 20:35:00
1:55 PM,28.4,24.8,86,29.62,1.0,NW,11.5,-,N/A,,Overcast,310,2013-02-09 20:55:00
2:15 PM,28.4,21.2,74,29.62,10.0,West,9.2,-,N/A,,Mostly Cloudy,280,2013-02-09 21:15:00
2:35 PM,28.4,21.2,74,29.62,10.0,West,8.1,-,N/A,,Overcast,270,2013-02-09 21:35:00
2:55 PM,30.2,21.2,69,29.61,10.0,WSW,13.8,-,N/A,,Overcast,240,2013-02-09 21:55:00
3:15 PM,28.4,19.4,69,29.62,10.0,West,19.6,25.3,N/A,,Overcast,260,2013-02-09 22:15:00
3:35 PM,28.4,14.0,55,29.62,10.0,West,12.7,18.4,N/A,,Overcast,270,2013-02-09 22:35:00
3:55 PM,28.4,14.0,55,29.63,10.0,West,16.1,20.7,N/A,,Overcast,260,2013-02-09 22:55:00
4:15 PM,26.6,15.8,64,29.63,5.0,West,20.7,28.8,N/A,,Mostly Cloudy,270,2013-02-09 23:15:00
4:35 PM,26.6,15.8,64,29.65,7.0,West,13.8,-,N/A,,Overcast,280,2013-02-09 23:35:00
4:55 PM,28.4,14.0,55,29.65,10.0,West,15.0,-,N/A,,Mostly Cloudy,270,2013-02-09 23:55:00
5:15 PM,26.6,15.8,64,29.65,10.0,West,10.4,-,N/A,,Mostly Cloudy,260,2013-02-10 00:15:00
5:35 PM,24.8,14.0,64,29.65,10.0,SW,9.2,-,N/A,,Overcast,230,2013-02-10 00:35:00
5:55 PM,24.8,14.0,64,29.64,10.0,West,9.2,-,N/A,,Mostly Cloudy,260,2013-02-10 00:55:00
6:35 PM,21.2,17.6,86,29.65,10.0,West,12.7,17.3,N/A,,Mostly Cloudy,270,2013-02-10 01:35:00
6:55 PM,23.0,15.8,74,29.64,10.0,WSW,19.6,24.2,N/A,,Mostly Cloudy,250,2013-02-10 01:55:00
7:15 PM,23.0,15.8,74,29.63,5.0,SW,21.9,27.6,N/A,,Mostly Cloudy,230,2013-02-10 02:15:00
7:35 PM,21.2,15.8,80,29.62,7.0,WSW,24.2,29.9,N/A,,Mostly Cloudy,240,2013-02-10 02:35:00
7:55 PM,21.2,15.8,80,29.64,10.0,WSW,16.1,25.3,N/A,,Mostly Cloudy,250,2013-02-10 02:55:00
8:15 PM,21.2,17.6,86,29.64,8.0,WSW,15.0,20.7,N/A,,Mostly Cloudy,240,2013-02-10 03:15:00
8:35 PM,21.2,17.6,86,29.66,8.0,WSW,12.7,19.6,N/A,,Overcast,240,2013-02-10 03:35:00
8:55 PM,21.2,17.6,86,29.66,4.0,SW,15.0,18.4,N/A,,Overcast,220,2013-02-10 03:55:00
9:15 PM,21.2,17.6,86,29.67,10.0,SSW,10.4,-,N/A,,Overcast,210,2013-02-10 04:15:00
9:35 PM,21.2,17.6,86,29.67,10.0,SW,16.1,-,N/A,,Overcast,230,2013-02-10 04:35:00
9:55 PM,21.2,15.8,80,29.67,10.0,SW,12.7,-,N/A,,Overcast,220,2013-02-10 04:55:00
10:15 PM,23.0,15.8,74,29.68,10.0,SW,10.4,19.6,N/A,,Mostly Cloudy,220,2013-02-10 05:15:00
10:35 PM,23.0,17.6,80,29.69,10.0,SW,16.1,19.6,N/A,,Overcast,230,2013-02-10 05:35:00
10:55 PM,23.0,17.6,80,29.69,10.0,SW,15.0,-,N/A,,Overcast,230,2013-02-10 05:55:00
11:15 PM,23.0,17.6,80,29.69,5.0,SW,16.1,-,N/A,,Overcast,230,2013-02-10 06:15:00
11:35 PM,23.0,17.6,80,29.70,9.0,SW,15.0,-,N/A,,Overcast,230,2013-02-10 06:35:00
11:55 PM,23.0,17.6,80,29.71,5.0,SW,16.1,-,N/A,,Overcast,230,2013-02-10 06:55:00